Time,TemperatureF,DewpointF,PressureIn,WindDirection,WindDirectionDegrees,WindSpeedMPH,WindSpeedGustMPH,Humidity,HourlyPrecipIn,Conditions,Clouds,dailyrainin,SoftwareType,DateUTC
2013-07-22 00:00:00,66.8,62.2,29.83,NE,45,0.0,1.0,85,0.00,,---,0.00,VWS V14.00,2013-07-22 04:00:00,
2013-07-22 00:15:00,66.8,62.5,29.83,ESE,112,0.0,2.0,86,0.00,,---,0.00,VWS V14.00,2013-07-22 04:15:00,
2013-07-22 00:30:00,66.7,62.4,29.83,ESE,112,0.0,1.0,86,0.00,,---,0.00,VWS V14.00,2013-07-22 04:30:00,
2013-07-22 00:45:00,67.1,62.5,29.83,ENE,68,0.0,3.0,85,0.00,,---,0.00,VWS V14.00,2013-07-22 04:45:00,
2013-07-22 00:57:00,65.2,62.2,29.83,ESE,103,0.0,0.0,90,0.00,,---,0.00,VWS V14.00,2013-07-22 04:57:00,
2013-07-22 01:00:00,66.8,62.2,29.83,NE,45,0.0,1.0,85,0.00,,---,0.00,VWS V14.00,2013-07-22 05:00:00,
2013-07-22 01:02:00,65.0,62.0,29.83,ESE,103,0.0,0.0,90,0.00,,---,0.00,VWS V14.00,2013-07-22 05:02:00,
2013-07-22 01:07:00,64.9,61.9,29.83,ESE,103,0.0,0.0,90,0.00,,---,0.00,VWS V14.00,2013-07-22 05:07:00,
2013-07-22 01:12:00,64.9,61.9,29.83,ESE,103,0.0,0.0,90,0.00,,---,0.00,VWS V14.00,2013-07-22 05:12:00,
2013-07-22 01:15:00,66.8,62.5,29.83,ESE,112,0.0,2.0,86,0.00,,---,0.00,VWS V14.00,2013-07-22 05:15:00,
2013-07-22 01:17:00,65.0,62.0,29.83,ESE,103,0.0,0.0,90,0.00,,---,0.00,VWS V14.00,2013-07-22 05:17:00,
2013-07-22 01:22:00,64.8,61.8,29.83,ESE,103,0.0,0.0,90,0.00,,---,0.00,VWS V14.00,2013-07-22 05:22:00,
2013-07-22 01:27:00,64.6,61.6,29.82,ESE,103,0.0,0.0,90,0.00,,---,0.00,VWS V14.00,2013-07-22 05:27:00,
2013-07-22 01:30:00,66.7,62.4,29.83,ESE,112,0.0,1.0,86,0.00,,---,0.00,VWS V14.00,2013-07-22 05:30:00,
2013-07-22 01:32:00,64.6,61.9,29.82,ESE,103,0.0,1.0,91,0.00,,---,0.00,VWS V14.00,2013-07-22 05:32:00,
2013-07-22 01:37:00,64.7,62.0,29.82,ESE,103,0.0,1.0,91,0.00,,---,0.00,VWS V14.00,2013-07-22 05:37:00,
2013-07-22 01:42:00,64.7,61.7,29.82,ESE,103,0.0,1.0,90,0.00,,---,0.00,VWS V14.00,2013-07-22 05:42:00,
2013-07-22 01:47:00,64.5,61.5,29.82,ESE,103,0.0,0.0,90,0.00,,---,0.00,VWS V14.00,2013-07-22 05:47:00,
2013-07-22 01:52:00,64.3,61.6,29.82,ESE,103,0.0,0.0,91,0.00,,---,0.00,VWS V14.00,2013-07-22 05:52:00,
2013-07-22 01:57:00,64.0,61.3,29.82,ESE,103,0.0,0.0,91,0.00,,---,0.00,VWS V14.00,2013-07-22 05:57:00,
2013-07-22 02:00:00,65.1,62.1,29.83,ESE,103,0.0,0.0,90,0.00,,---,0.00,VWS V14.00,2013-07-22 06:00:00,
2013-07-22 02:02:00,63.8,61.1,29.81,ESE,103,0.0,0.0,91,0.00,,---,0.00,VWS V14.00,2013-07-22 06:02:00,
2013-07-22 02:07:00,63.6,61.2,29.81,ESE,103,0.0,0.0,92,0.00,,---,0.00,VWS V14.00,2013-07-22 06:07:00,
2013-07-22 02:12:00,63.4,61.0,29.81,ESE,103,0.0,0.0,92,0.00,,---,0.00,VWS V14.00,2013-07-22 06:12:00,
2013-07-22 02:15:00,65.0,62.0,29.82,ESE,103,0.0,0.0,90,0.00,,---,0.00,VWS V14.00,2013-07-22 06:15:00,
2013-07-22 02:17:00,63.2,60.8,29.81,ESE,103,0.0,0.0,92,0.00,,---,0.00,VWS V14.00,2013-07-22 06:17:00,
2013-07-22 02:22:00,63.1,61.0,29.81,ESE,103,0.0,0.0,93,0.00,,---,0.00,VWS V14.00,2013-07-22 06:22:00,
2013-07-22 02:27:00,62.9,60.8,29.81,ESE,103,0.0,0.0,93,0.00,,---,0.00,VWS V14.00,2013-07-22 06:27:00,
2013-07-22 02:30:00,64.6,61.9,29.82,ESE,103,0.0,0.0,91,0.00,,---,0.00,VWS V14.00,2013-07-22 06:30:00,
2013-07-22 02:32:00,62.7,60.7,29.81,ESE,103,0.0,0.0,93,0.00,,---,0.00,VWS V14.00,2013-07-22 06:32:00,
2013-07-22 02:37:00,62.5,60.5,29.80,ESE,103,0.0,0.0,93,0.00,,---,0.00,VWS V14.00,2013-07-22 06:37:00,
2013-07-22 02:42:00,62.4,60.3,29.80,ESE,103,0.0,0.0,93,0.00,,---,0.00,VWS V14.00,2013-07-22 06:42:00,
2013-07-22 02:45:00,64.7,61.7,29.82,ESE,103,0.0,1.0,90,0.00,,---,0.00,VWS V14.00,2013-07-22 06:45:00,
2013-07-22 02:47:00,62.2,60.5,29.80,ESE,103,0.0,0.0,94,0.00,,---,0.00,VWS V14.00,2013-07-22 06:47:00,
2013-07-22 02:52:00,62.2,60.5,29.80,ESE,103,0.0,0.0,94,0.00,,---,0.00,VWS V14.00,2013-07-22 06:52:00,
2013-07-22 02:58:00,62.1,60.4,29.80,ESE,103,0.0,0.0,94,0.00,,---,0.00,VWS V14.00,2013-07-22 06:58:00,
2013-07-22 03:00:00,63.9,61.2,29.82,ESE,103,0.0,0.0,91,0.00,,---,0.00,VWS V14.00,2013-07-22 07:00:00,
2013-07-22 03:03:00,62.0,60.3,29.80,ESE,103,0.0,0.0,94,0.00,,---,0.00,VWS V14.00,2013-07-22 07:03:00,
2013-07-22 03:08:00,61.8,60.1,29.80,ESE,103,0.0,0.0,94,0.00,,---,0.00,VWS V14.00,2013-07-22 07:08:00,
2013-07-22 03:13:00,61.9,60.5,29.80,ESE,103,0.0,0.0,95,0.00,,---,0.00,VWS V14.00,2013-07-22 07:13:00,
2013-07-22 03:15:00,63.2,60.8,29.81,ESE,103,0.0,0.0,92,0.00,,---,0.00,VWS V14.00,2013-07-22 07:15:00,
2013-07-22 03:18:00,61.9,60.5,29.79,ESE,103,0.0,0.0,95,0.00,,---,0.00,VWS V14.00,2013-07-22 07:18:00,
2013-07-22 03:23:00,61.7,60.3,29.79,ESE,103,0.0,0.0,95,0.00,,---,0.00,VWS V14.00,2013-07-22 07:23:00,
2013-07-22 03:28:00,61.6,60.2,29.79,ESE,103,0.0,0.0,95,0.00,,---,0.00,VWS V14.00,2013-07-22 07:28:00,
2013-07-22 03:30:00,62.8,60.8,29.81,ESE,103,0.0,0.0,93,0.00,,---,0.00,VWS V14.00,2013-07-22 07:30:00,
2013-07-22 03:33:00,61.5,60.1,29.79,ESE,103,0.0,0.0,95,0.00,,---,0.00,VWS V14.00,2013-07-22 07:33:00,
2013-07-22 03:38:00,61.4,60.0,29.79,ESE,103,0.0,0.0,95,0.00,,---,0.00,VWS V14.00,2013-07-22 07:38:00,
2013-07-22 03:43:00,61.3,59.9,29.79,ESE,103,0.0,0.0,95,0.00,,---,0.00,VWS V14.00,2013-07-22 07:43:00,
2013-07-22 03:45:00,62.4,60.7,29.80,ESE,103,0.0,0.0,94,0.00,,---,0.00,VWS V14.00,2013-07-22 07:45:00,
2013-07-22 03:48:00,61.2,59.8,29.79,ESE,103,0.0,0.0,95,0.00,,---,0.00,VWS V14.00,2013-07-22 07:48:00,
2013-07-22 03:53:00,61.2,59.8,29.79,ESE,103,0.0,0.0,95,0.00,,---,0.00,VWS V14.00,2013-07-22 07:53:00,
2013-07-22 03:58:00,61.3,59.9,29.79,ESE,103,0.0,0.0,95,0.00,,---,0.00,VWS V14.00,2013-07-22 07:58:00,
2013-07-22 04:00:00,62.1,60.4,29.80,ESE,103,0.0,0.0,94,0.00,,---,0.00,VWS V14.00,2013-07-22 08:00:00,
2013-07-22 04:03:00,61.4,60.0,29.78,ESE,103,0.0,0.0,95,0.00,,---,0.00,VWS V14.00,2013-07-22 08:03:00,
2013-07-22 04:08:00,61.6,60.5,29.78,ESE,103,0.0,1.0,96,0.00,,---,0.00,VWS V14.00,2013-07-22 08:08:00,
2013-07-22 04:13:00,61.9,60.8,29.78,ESE,103,0.0,1.0,96,0.00,,---,0.00,VWS V14.00,2013-07-22 08:13:00,
2013-07-22 04:15:00,61.9,60.5,29.80,ESE,103,0.0,0.0,95,0.00,,---,0.00,VWS V14.00,2013-07-22 08:15:00,
2013-07-22 04:18:00,62.1,61.0,29.78,ESE,103,0.0,0.0,96,0.00,,---,0.00,VWS V14.00,2013-07-22 08:18:00,
2013-07-22 04:23:00,62.0,60.6,29.78,ESE,103,0.0,0.0,95,0.00,,---,0.00,VWS V14.00,2013-07-22 08:23:00,
2013-07-22 04:28:00,62.0,60.6,29.78,ESE,103,0.0,1.0,95,0.00,,---,0.00,VWS V14.00,2013-07-22 08:28:00,
2013-07-22 04:30:00,61.6,60.2,29.79,ESE,103,0.0,0.0,95,0.00,,---,0.00,VWS V14.00,2013-07-22 08:30:00,
2013-07-22 04:33:00,62.1,60.7,29.78,ESE,103,0.0,0.0,95,0.00,,---,0.00,VWS V14.00,2013-07-22 08:33:00,
2013-07-22 04:38:00,62.2,60.8,29.78,ESE,103,0.0,0.0,95,0.00,,---,0.00,VWS V14.00,2013-07-22 08:38:00,
2013-07-22 04:43:00,62.1,60.7,29.78,East,92,1.0,1.0,95,0.00,,---,0.00,VWS V14.00,2013-07-22 08:43:00,
2013-07-22 04:45:00,61.2,59.8,29.79,ESE,103,0.0,0.0,95,0.00,,---,0.00,VWS V14.00,2013-07-22 08:45:00,
2013-07-22 04:48:00,62.3,60.8,29.78,ENE,73,0.0,3.0,95,0.00,,---,0.00,VWS V14.00,2013-07-22 08:48:00,
2013-07-22 04:53:00,62.3,60.8,29.78,ENE,72,0.0,3.0,95,0.00,,---,0.00,VWS V14.00,2013-07-22 08:53:00,
2013-07-22 04:58:00,62.3,60.8,29.78,ENE,72,0.0,3.0,95,0.00,,---,0.00,VWS V14.00,2013-07-22 08:58:00,
2013-07-22 05:00:00,61.3,59.9,29.79,ESE,103,0.0,0.0,95,0.00,,---,0.00,VWS V14.00,2013-07-22 09:00:00,
2013-07-22 05:03:00,62.3,60.8,29.78,ENE,72,0.0,0.0,95,0.00,,---,0.00,VWS V14.00,2013-07-22 09:03:00,
2013-07-22 05:08:00,62.4,61.0,29.78,ENE,72,0.0,1.0,95,0.00,,---,0.00,VWS V14.00,2013-07-22 09:08:00,
2013-07-22 05:13:00,62.3,60.8,29.78,ENE,72,0.0,1.0,95,0.00,,---,0.00,VWS V14.00,2013-07-22 09:13:00,
2013-07-22 05:15:00,62.1,61.0,29.78,ESE,103,0.0,1.0,96,0.00,,---,0.00,VWS V14.00,2013-07-22 09:15:00,
2013-07-22 05:18:00,62.0,60.3,29.78,ENE,72,0.0,0.0,94,0.00,,---,0.00,VWS V14.00,2013-07-22 09:18:00,
2013-07-22 05:23:00,61.8,60.1,29.78,ENE,72,0.0,0.0,94,0.00,,---,0.00,VWS V14.00,2013-07-22 09:23:00,
2013-07-22 05:28:00,61.7,60.3,29.78,ENE,72,0.0,0.0,95,0.00,,---,0.00,VWS V14.00,2013-07-22 09:28:00,
2013-07-22 05:30:00,62.1,60.7,29.78,ESE,103,0.0,1.0,95,0.00,,---,0.00,VWS V14.00,2013-07-22 09:30:00,
2013-07-22 05:33:00,61.7,60.3,29.78,ENE,72,0.0,0.0,95,0.00,,---,0.00,VWS V14.00,2013-07-22 09:33:00,
2013-07-22 05:38:00,61.8,60.4,29.78,ENE,72,0.0,0.0,95,0.00,,---,0.00,VWS V14.00,2013-07-22 09:38:00,
2013-07-22 05:43:00,61.6,60.2,29.78,ENE,72,0.0,0.0,95,0.00,,---,0.00,VWS V14.00,2013-07-22 09:43:00,
2013-07-22 05:45:00,62.1,60.7,29.78,NE,50,0.0,2.0,95,0.00,,---,0.00,VWS V14.00,2013-07-22 09:45:00,
2013-07-22 05:48:00,61.7,60.3,29.79,ENE,72,0.0,1.0,95,0.00,,---,0.00,VWS V14.00,2013-07-22 09:48:00,
2013-07-22 05:53:00,61.9,60.8,29.79,ENE,72,0.0,1.0,96,0.00,,---,0.00,VWS V14.00,2013-07-22 09:53:00,
2013-07-22 05:58:00,61.9,60.5,29.79,ENE,72,0.0,1.0,95,0.00,,---,0.00,VWS V14.00,2013-07-22 09:58:00,
2013-07-22 06:00:00,62.3,60.8,29.78,ENE,72,0.0,3.0,95,0.00,,---,0.00,VWS V14.00,2013-07-22 10:00:00,
2013-07-22 06:03:00,61.9,60.5,29.79,ENE,72,0.0,0.0,95,0.00,,---,0.00,VWS V14.00,2013-07-22 10:03:00,
2013-07-22 06:08:00,61.9,60.5,29.79,ENE,72,0.0,0.0,95,0.00,,---,0.00,VWS V14.00,2013-07-22 10:08:00,
2013-07-22 06:13:00,62.1,61.0,29.79,ENE,72,0.0,0.0,96,0.00,,---,0.00,VWS V14.00,2013-07-22 10:13:00,
2013-07-22 06:15:00,62.2,60.8,29.78,ENE,72,0.0,1.0,95,0.00,,---,0.00,VWS V14.00,2013-07-22 10:15:00,
2013-07-22 06:18:00,62.6,61.5,29.79,ENE,65,0.0,3.0,96,0.00,,---,0.00,VWS V14.00,2013-07-22 10:18:00,
2013-07-22 06:23:00,62.9,61.8,29.78,ENE,61,0.0,3.0,96,0.00,,---,0.00,VWS V14.00,2013-07-22 10:23:00,
2013-07-22 06:28:00,63.3,62.1,29.79,East,86,3.0,3.0,96,0.00,,---,0.00,VWS V14.00,2013-07-22 10:28:00,
2013-07-22 06:30:00,61.7,60.3,29.78,ENE,72,0.0,0.0,95,0.00,,---,0.00,VWS V14.00,2013-07-22 10:30:00,
2013-07-22 06:33:00,63.5,62.0,29.79,East,83,0.0,3.0,95,0.00,,---,0.00,VWS V14.00,2013-07-22 10:33:00,
2013-07-22 06:38:00,63.8,62.3,29.79,SE,125,0.0,4.0,95,0.00,,---,0.00,VWS V14.00,2013-07-22 10:38:00,
2013-07-22 06:43:00,64.0,62.2,29.78,East,98,0.0,4.0,94,0.00,,---,0.00,VWS V14.00,2013-07-22 10:43:00,
2013-07-22 06:45:00,61.5,60.1,29.79,ENE,72,0.0,0.0,95,0.00,,---,0.00,VWS V14.00,2013-07-22 10:45:00,
2013-07-22 06:48:00,64.3,62.5,29.78,ESE,102,0.0,0.0,94,0.00,,---,0.00,VWS V14.00,2013-07-22 10:48:00,
2013-07-22 06:53:00,64.5,62.4,29.78,ESE,102,0.0,0.0,93,0.00,,---,0.00,VWS V14.00,2013-07-22 10:53:00,
2013-07-22 06:58:00,64.7,62.6,29.78,ESE,102,0.0,1.0,93,0.00,,---,0.00,VWS V14.00,2013-07-22 10:58:00,
2013-07-22 07:00:00,61.9,60.5,29.79,ENE,72,0.0,1.0,95,0.00,,---,0.00,VWS V14.00,2013-07-22 11:00:00,
2013-07-22 07:03:00,64.8,62.7,29.78,ESE,102,0.0,1.0,93,0.00,,---,0.00,VWS V14.00,2013-07-22 11:03:00,
2013-07-22 07:08:00,64.9,62.8,29.78,ESE,102,0.0,1.0,93,0.00,,---,0.00,VWS V14.00,2013-07-22 11:08:00,
2013-07-22 07:13:00,64.8,62.4,29.79,East,90,0.0,1.0,92,0.00,,---,0.00,VWS V14.00,2013-07-22 11:13:00,
2013-07-22 07:15:00,62.3,61.2,29.79,ENE,72,0.0,0.0,96,0.00,,---,0.00,VWS V14.00,2013-07-22 11:15:00,
2013-07-22 07:18:00,64.8,62.7,29.79,East,90,0.0,0.0,93,0.00,,---,0.00,VWS V14.00,2013-07-22 11:18:00,
2013-07-22 07:23:00,65.0,62.9,29.79,East,90,0.0,0.0,93,0.00,,---,0.00,VWS V14.00,2013-07-22 11:23:00,
2013-07-22 07:28:00,65.2,63.1,29.79,East,90,0.0,0.0,93,0.00,,---,0.00,VWS V14.00,2013-07-22 11:28:00,
2013-07-22 07:30:00,63.4,62.0,29.79,ENE,65,0.0,3.0,95,0.00,,---,0.00,VWS V14.00,2013-07-22 11:30:00,
2013-07-22 07:33:00,65.6,63.5,29.79,East,90,0.0,0.0,93,0.00,,---,0.00,VWS V14.00,2013-07-22 11:33:00,
2013-07-22 07:38:00,66.1,64.0,29.79,East,90,0.0,0.0,93,0.00,,---,0.00,VWS V14.00,2013-07-22 11:38:00,
2013-07-22 07:43:00,66.5,64.1,29.79,East,90,0.0,0.0,92,0.00,,---,0.00,VWS V14.00,2013-07-22 11:43:00,
2013-07-22 07:45:00,64.1,62.3,29.78,East,101,0.0,4.0,94,0.00,,---,0.00,VWS V14.00,2013-07-22 11:45:00,
2013-07-22 07:48:00,67.0,64.6,29.79,East,90,0.0,0.0,92,0.00,,---,0.00,VWS V14.00,2013-07-22 11:48:00,
2013-07-22 07:53:00,67.3,64.6,29.79,East,90,0.0,1.0,91,0.00,,---,0.00,VWS V14.00,2013-07-22 11:53:00,
2013-07-22 07:58:00,67.7,65.0,29.79,East,90,0.0,1.0,91,0.00,,---,0.00,VWS V14.00,2013-07-22 11:58:00,
2013-07-22 08:00:00,64.7,62.6,29.78,ESE,102,0.0,1.0,93,0.00,,---,0.00,VWS V14.00,2013-07-22 12:00:00,
2013-07-22 08:03:00,68.4,65.7,29.78,East,90,0.0,0.0,91,0.00,,---,0.00,VWS V14.00,2013-07-22 12:03:00,
2013-07-22 08:08:00,69.1,65.7,29.78,East,90,0.0,0.0,89,0.00,,---,0.00,VWS V14.00,2013-07-22 12:08:00,
2013-07-22 08:13:00,69.4,65.7,29.78,East,90,0.0,0.0,88,0.00,,---,0.00,VWS V14.00,2013-07-22 12:13:00,
2013-07-22 08:15:00,64.8,62.4,29.79,East,90,0.0,1.0,92,0.00,,---,0.00,VWS V14.00,2013-07-22 12:15:00,
2013-07-22 08:18:00,69.6,65.9,29.78,East,90,0.0,0.0,88,0.00,,---,0.00,VWS V14.00,2013-07-22 12:18:00,
2013-07-22 08:23:00,69.8,66.1,29.78,ESE,109,0.0,1.0,88,0.00,,---,0.00,VWS V14.00,2013-07-22 12:23:00,
2013-07-22 08:28:00,70.1,66.1,29.78,SE,146,0.0,1.0,87,0.00,,---,0.00,VWS V14.00,2013-07-22 12:28:00,
2013-07-22 08:30:00,65.3,63.2,29.79,East,90,0.0,0.0,93,0.00,,---,0.00,VWS V14.00,2013-07-22 12:30:00,
2013-07-22 08:33:00,70.2,65.8,29.78,SE,126,5.0,5.0,86,0.00,,---,0.00,VWS V14.00,2013-07-22 12:33:00,
2013-07-22 08:38:00,70.3,66.2,29.78,ESE,115,0.0,5.0,87,0.00,,---,0.00,VWS V14.00,2013-07-22 12:38:00,
2013-07-22 08:43:00,70.8,66.7,29.78,ESE,115,0.0,5.0,87,0.00,,---,0.00,VWS V14.00,2013-07-22 12:43:00,
2013-07-22 08:45:00,66.7,64.3,29.79,East,90,0.0,0.0,92,0.00,,---,0.00,VWS V14.00,2013-07-22 12:45:00,
2013-07-22 08:48:00,71.6,67.2,29.78,ESE,115,0.0,0.0,86,0.00,,---,0.00,VWS V14.00,2013-07-22 12:48:00,
2013-07-22 08:53:00,72.0,66.9,29.78,South,191,0.0,2.0,84,0.00,,---,0.00,VWS V14.00,2013-07-22 12:53:00,
2013-07-22 08:58:00,72.2,67.4,29.78,South,191,0.0,2.0,85,0.00,,---,0.00,VWS V14.00,2013-07-22 12:58:00,
2013-07-22 09:00:00,67.9,65.2,29.78,East,90,0.0,1.0,91,0.00,,---,0.00,VWS V14.00,2013-07-22 13:00:00,
2013-07-22 09:03:00,72.6,67.8,29.78,SSE,163,0.0,1.0,85,0.00,,---,0.00,VWS V14.00,2013-07-22 13:03:00,
2013-07-22 09:08:00,72.9,68.1,29.78,SSE,163,0.0,1.0,85,0.00,,---,0.00,VWS V14.00,2013-07-22 13:08:00,
2013-07-22 09:13:00,73.0,67.5,29.77,South,172,0.0,4.0,83,0.00,,---,0.00,VWS V14.00,2013-07-22 13:13:00,
2013-07-22 09:15:00,69.5,65.8,29.78,East,90,0.0,1.0,88,0.00,,---,0.00,VWS V14.00,2013-07-22 13:15:00,
2013-07-22 09:18:00,73.2,67.7,29.77,South,172,0.0,1.0,83,0.00,,---,0.00,VWS V14.00,2013-07-22 13:18:00,
2013-07-22 09:23:00,73.7,68.2,29.77,South,170,0.0,1.0,83,0.00,,---,0.00,VWS V14.00,2013-07-22 13:23:00,
2013-07-22 09:28:00,74.0,68.5,29.77,South,170,0.0,1.0,83,0.00,,---,0.00,VWS V14.00,2013-07-22 13:28:00,
2013-07-22 09:30:00,70.2,66.2,29.78,SE,144,0.0,1.0,87,0.00,,---,0.00,VWS V14.00,2013-07-22 13:30:00,
2013-07-22 09:33:00,74.3,68.4,29.77,South,170,0.0,0.0,82,0.00,,---,0.00,VWS V14.00,2013-07-22 13:33:00,
2013-07-22 09:38:00,74.4,68.2,29.77,South,170,0.0,1.0,81,0.00,,---,0.00,VWS V14.00,2013-07-22 13:38:00,
2013-07-22 09:43:00,74.6,68.4,29.77,South,173,0.0,1.0,81,0.00,,---,0.00,VWS V14.00,2013-07-22 13:43:00,
2013-07-22 09:45:00,71.0,66.9,29.78,ESE,115,0.0,5.0,87,0.00,,---,0.00,VWS V14.00,2013-07-22 13:45:00,
2013-07-22 09:48:00,74.7,68.5,29.77,South,175,0.0,1.0,81,0.00,,---,0.00,VWS V14.00,2013-07-22 13:48:00,
2013-07-22 09:53:00,74.8,68.2,29.77,SE,139,4.0,4.0,80,0.00,,---,0.00,VWS V14.00,2013-07-22 13:53:00,
2013-07-22 09:58:00,75.2,68.6,29.77,South,173,1.0,5.0,80,0.00,,---,0.00,VWS V14.00,2013-07-22 13:58:00,
2013-07-22 10:00:00,72.3,67.5,29.78,SSE,163,0.0,2.0,85,0.00,,---,0.00,VWS V14.00,2013-07-22 14:00:00,
2013-07-22 10:03:00,75.7,69.1,29.77,SE,130,0.0,2.0,80,0.00,,---,0.00,VWS V14.00,2013-07-22 14:03:00,
2013-07-22 10:08:00,76.3,68.9,29.76,ENE,76,0.0,4.0,78,0.00,,---,0.00,VWS V14.00,2013-07-22 14:08:00,
2013-07-22 10:13:00,76.7,68.6,29.76,SSE,158,0.0,4.0,76,0.00,,---,0.00,VWS V14.00,2013-07-22 14:13:00,
2013-07-22 10:15:00,73.0,67.5,29.78,South,172,0.0,4.0,83,0.00,,---,0.00,VWS V14.00,2013-07-22 14:15:00,
2013-07-22 10:18:00,77.4,69.2,29.76,South,190,0.0,1.0,76,0.00,,---,0.00,VWS V14.00,2013-07-22 14:18:00,
2013-07-22 10:23:00,77.7,69.9,29.76,East,94,1.0,5.0,77,0.00,,---,0.00,VWS V14.00,2013-07-22 14:23:00,
2013-07-22 10:28:00,77.5,69.3,29.76,South,183,3.0,5.0,76,0.00,,---,0.00,VWS V14.00,2013-07-22 14:28:00,
2013-07-22 10:30:00,74.0,68.2,29.77,South,170,0.0,1.0,82,0.00,,---,0.00,VWS V14.00,2013-07-22 14:30:00,
2013-07-22 10:33:00,77.3,69.2,29.76,South,174,0.0,1.0,76,0.00,,---,0.00,VWS V14.00,2013-07-22 14:33:00,
2013-07-22 10:38:00,77.4,69.2,29.76,SSE,158,0.0,2.0,76,0.00,,---,0.00,VWS V14.00,2013-07-22 14:38:00,
2013-07-22 10:43:00,77.5,69.3,29.76,SE,135,0.0,7.0,76,0.00,,---,0.00,VWS V14.00,2013-07-22 14:43:00,
2013-07-22 10:45:00,74.6,68.0,29.77,South,173,0.0,1.0,80,0.00,,---,0.00,VWS V14.00,2013-07-22 14:45:00,
2013-07-22 10:48:00,77.7,68.8,29.77,South,190,0.0,6.0,74,0.00,,---,0.00,VWS V14.00,2013-07-22 14:48:00,
2013-07-22 10:53:00,77.6,68.7,29.77,SSW,198,4.0,7.0,74,0.00,,---,0.00,VWS V14.00,2013-07-22 14:53:00,
2013-07-22 10:59:00,77.4,68.5,29.77,South,173,0.0,7.0,74,0.00,,---,0.00,VWS V14.00,2013-07-22 14:59:00,
2013-07-22 11:00:00,75.3,68.3,29.77,South,181,0.0,5.0,79,0.00,,---,0.00,VWS V14.00,2013-07-22 15:00:00,
2013-07-22 11:04:00,77.3,68.4,29.76,SSW,192,1.0,6.0,74,0.00,,---,0.00,VWS V14.00,2013-07-22 15:04:00,
2013-07-22 11:09:00,77.1,68.2,29.76,South,185,0.0,6.0,74,0.00,,---,0.00,VWS V14.00,2013-07-22 15:09:00,
2013-07-22 11:14:00,77.0,68.5,29.76,SE,142,0.0,6.0,75,0.00,,---,0.00,VWS V14.00,2013-07-22 15:14:00,
2013-07-22 11:15:00,76.9,68.8,29.76,SSE,158,0.0,4.0,76,0.00,,---,0.00,VWS V14.00,2013-07-22 15:15:00,
2013-07-22 11:18:00,77.0,68.1,29.76,South,177,1.0,5.0,74,0.00,,---,0.00,VWS V14.00,2013-07-22 15:18:00,
2013-07-22 11:24:00,77.1,69.3,29.76,South,189,3.0,5.0,77,0.00,,---,0.00,VWS V14.00,2013-07-22 15:24:00,
2013-07-22 11:29:00,77.2,68.3,29.76,South,189,2.0,7.0,74,0.00,,---,0.00,VWS V14.00,2013-07-22 15:29:00,
2013-07-22 11:30:00,77.4,68.9,29.76,South,179,0.0,5.0,75,0.00,,---,0.00,VWS V14.00,2013-07-22 15:30:00,
2013-07-22 11:33:00,77.1,68.6,29.76,SE,142,1.0,5.0,75,0.00,,---,0.00,VWS V14.00,2013-07-22 15:33:00,
2013-07-22 11:39:00,77.1,69.3,29.76,SSE,155,0.0,5.0,77,0.00,,---,0.00,VWS V14.00,2013-07-22 15:39:00,
2013-07-22 11:44:00,77.1,68.2,29.76,ESE,121,0.0,5.0,74,0.00,,---,0.00,VWS V14.00,2013-07-22 15:44:00,
2013-07-22 11:45:00,77.5,69.0,29.76,SW,214,0.0,7.0,75,0.00,,---,0.00,VWS V14.00,2013-07-22 15:45:00,
2013-07-22 11:49:00,77.2,68.7,29.76,South,181,1.0,1.0,75,0.00,,---,0.00,VWS V14.00,2013-07-22 15:49:00,
2013-07-22 11:54:00,77.2,69.1,29.76,South,176,0.0,8.0,76,0.00,,---,0.00,VWS V14.00,2013-07-22 15:54:00,
2013-07-22 11:59:00,77.3,68.8,29.75,ESE,107,0.0,8.0,75,0.00,,---,0.00,VWS V14.00,2013-07-22 15:59:00,
2013-07-22 12:00:00,77.4,68.9,29.77,South,169,0.0,7.0,75,0.00,,---,0.00,VWS V14.00,2013-07-22 16:00:00,
2013-07-22 12:04:00,77.4,68.5,29.75,ESE,110,1.0,5.0,74,0.00,,---,0.00,VWS V14.00,2013-07-22 16:04:00,
2013-07-22 12:09:00,77.5,69.3,29.75,SE,131,0.0,5.0,76,0.00,,---,0.00,VWS V14.00,2013-07-22 16:09:00,
2013-07-22 12:14:00,77.7,69.9,29.75,SSW,194,0.0,5.0,77,0.00,,---,0.00,VWS V14.00,2013-07-22 16:14:00,
2013-07-22 12:15:00,77.0,68.1,29.76,South,184,1.0,6.0,74,0.00,,---,0.00,VWS V14.00,2013-07-22 16:15:00,
2013-07-22 12:19:00,78.1,69.9,29.75,East,90,2.0,6.0,76,0.00,,---,0.00,VWS V14.00,2013-07-22 16:19:00,
2013-07-22 12:24:00,78.4,69.8,29.75,SE,142,0.0,6.0,75,0.00,,---,0.00,VWS V14.00,2013-07-22 16:24:00,
2013-07-22 12:29:00,78.7,69.7,29.75,SE,137,0.0,6.0,74,0.00,,---,0.00,VWS V14.00,2013-07-22 16:29:00,
2013-07-22 12:30:00,77.2,68.3,29.76,South,184,4.0,7.0,74,0.00,,---,0.00,VWS V14.00,2013-07-22 16:30:00,
2013-07-22 12:34:00,78.7,69.3,29.75,SE,134,0.0,9.0,73,0.00,,---,0.00,VWS V14.00,2013-07-22 16:34:00,
2013-07-22 12:39:00,78.4,68.6,29.75,South,171,0.0,9.0,72,0.00,,---,0.00,VWS V14.00,2013-07-22 16:39:00,
2013-07-22 12:44:00,78.4,68.6,29.75,South,169,0.0,9.0,72,0.00,,---,0.00,VWS V14.00,2013-07-22 16:44:00,
2013-07-22 12:45:00,77.1,69.0,29.76,South,174,0.0,5.0,76,0.00,,---,0.00,VWS V14.00,2013-07-22 16:45:00,
2013-07-22 12:49:00,78.4,68.6,29.75,SE,136,4.0,6.0,72,0.00,,---,0.00,VWS V14.00,2013-07-22 16:49:00,
2013-07-22 12:54:00,78.6,69.2,29.75,WSW,248,0.0,6.0,73,0.00,,---,0.00,VWS V14.00,2013-07-22 16:54:00,
2013-07-22 12:59:00,78.7,69.3,29.75,South,179,0.0,6.0,73,0.00,,---,0.00,VWS V14.00,2013-07-22 16:59:00,
2013-07-22 13:00:00,77.3,69.2,29.75,South,184,0.0,8.0,76,0.00,,---,0.00,VWS V14.00,2013-07-22 17:00:00,
2013-07-22 13:04:00,78.7,68.5,29.75,SSE,166,0.0,7.0,71,0.00,,---,0.00,VWS V14.00,2013-07-22 17:04:00,
2013-07-22 13:09:00,78.7,68.9,29.75,SSE,166,0.0,7.0,72,0.00,,---,0.00,VWS V14.00,2013-07-22 17:09:00,
2013-07-22 13:14:00,78.7,69.7,29.75,South,182,0.0,7.0,74,0.00,,---,0.00,VWS V14.00,2013-07-22 17:14:00,
2013-07-22 13:15:00,77.8,69.2,29.75,SE,142,0.0,5.0,75,0.00,,---,0.00,VWS V14.00,2013-07-22 17:15:00,
2013-07-22 13:19:00,78.6,69.6,29.74,SSW,194,0.0,2.0,74,0.00,,---,0.00,VWS V14.00,2013-07-22 17:19:00,
2013-07-22 13:24:00,78.5,69.9,29.74,South,179,0.0,2.0,75,0.00,,---,0.00,VWS V14.00,2013-07-22 17:24:00,
2013-07-22 13:29:00,78.4,70.2,29.74,SSW,195,0.0,5.0,76,0.00,,---,0.00,VWS V14.00,2013-07-22 17:29:00,
2013-07-22 13:30:00,78.7,69.7,29.75,East,98,0.0,6.0,74,0.00,,---,0.00,VWS V14.00,2013-07-22 17:30:00,
2013-07-22 13:34:00,78.4,69.8,29.74,SW,221,0.0,1.0,75,0.00,,---,0.00,VWS V14.00,2013-07-22 17:34:00,
2013-07-22 13:39:00,78.7,69.3,29.74,South,188,1.0,5.0,73,0.00,,---,0.00,VWS V14.00,2013-07-22 17:39:00,
2013-07-22 13:44:00,79.0,70.0,29.73,South,188,0.0,6.0,74,0.00,,---,0.00,VWS V14.00,2013-07-22 17:44:00,
2013-07-22 13:45:00,78.4,68.6,29.75,South,169,0.0,9.0,72,0.00,,---,0.00,VWS V14.00,2013-07-22 17:45:00,
2013-07-22 13:49:00,79.4,70.4,29.73,SSE,155,0.0,6.0,74,0.00,,---,0.00,VWS V14.00,2013-07-22 17:49:00,
2013-07-22 13:54:00,79.5,70.1,29.73,South,180,0.0,6.0,73,0.00,,---,0.00,VWS V14.00,2013-07-22 17:54:00,
2013-07-22 13:59:00,79.7,69.9,29.73,WSW,246,0.0,6.0,72,0.00,,---,0.00,VWS V14.00,2013-07-22 17:59:00,
2013-07-22 14:00:00,78.8,69.4,29.75,South,179,0.0,6.0,73,0.00,,---,0.00,VWS V14.00,2013-07-22 18:00:00,
2013-07-22 14:04:00,79.7,69.9,29.73,South,184,0.0,4.0,72,0.00,,---,0.00,VWS V14.00,2013-07-22 18:04:00,
2013-07-22 14:10:00,79.8,70.4,29.72,South,174,6.0,8.0,73,0.00,,---,0.00,VWS V14.00,2013-07-22 18:10:00,
2013-07-22 14:15:00,79.7,70.3,29.72,SSE,161,0.0,8.0,73,0.00,,---,0.00,VWS V14.00,2013-07-22 18:15:00,
2013-07-22 14:20:00,79.6,69.8,29.72,South,191,0.0,1.0,72,0.00,,---,0.00,VWS V14.00,2013-07-22 18:20:00,
2013-07-22 14:25:00,79.6,70.6,29.72,SW,219,1.0,5.0,74,0.00,,---,0.00,VWS V14.00,2013-07-22 18:25:00,
2013-07-22 14:30:00,79.4,70.0,29.72,South,184,0.0,0.0,73,0.00,,---,0.00,VWS V14.00,2013-07-22 18:30:00,
2013-07-22 14:35:00,79.6,70.6,29.71,West,265,3.0,4.0,74,0.00,,---,0.00,VWS V14.00,2013-07-22 18:35:00,
2013-07-22 14:40:00,79.4,70.0,29.71,SSE,149,1.0,4.0,73,0.00,,---,0.00,VWS V14.00,2013-07-22 18:40:00,
2013-07-22 14:45:00,79.4,70.8,29.71,WSW,238,0.0,0.0,75,0.00,,---,0.00,VWS V14.00,2013-07-22 18:45:00,
2013-07-22 14:51:00,79.4,70.4,29.71,SW,216,0.0,1.0,74,0.00,,---,0.00,VWS V14.00,2013-07-22 18:51:00,
2013-07-22 14:56:00,79.5,70.9,29.71,SSE,164,0.0,1.0,75,0.00,,---,0.00,VWS V14.00,2013-07-22 18:56:00,
2013-07-22 15:00:00,79.7,70.3,29.73,WSW,246,0.0,6.0,73,0.00,,---,0.00,VWS V14.00,2013-07-22 19:00:00,
2013-07-22 15:01:00,79.5,70.5,29.71,SSE,155,0.0,1.0,74,0.00,,---,0.00,VWS V14.00,2013-07-22 19:01:00,
2013-07-22 15:06:00,79.3,70.7,29.71,WSW,248,0.0,1.0,75,0.00,,---,0.00,VWS V14.00,2013-07-22 19:06:00,
2013-07-22 15:11:00,79.4,70.8,29.70,WSW,246,0.0,1.0,75,0.00,,---,0.00,VWS V14.00,2013-07-22 19:11:00,
2013-07-22 15:15:00,79.7,70.3,29.72,SSE,168,1.0,8.0,73,0.00,,---,0.00,VWS V14.00,2013-07-22 19:15:00,
2013-07-22 15:16:00,79.5,70.9,29.70,WSW,243,0.0,1.0,75,0.00,,---,0.00,VWS V14.00,2013-07-22 19:16:00,
2013-07-22 15:22:00,79.6,71.0,29.70,SSW,209,0.0,4.0,75,0.00,,---,0.00,VWS V14.00,2013-07-22 19:22:00,
2013-07-22 15:27:00,79.5,70.9,29.70,WSW,250,0.0,4.0,75,0.00,,---,0.00,VWS V14.00,2013-07-22 19:27:00,
2013-07-22 15:30:00,79.4,70.0,29.72,South,184,0.0,5.0,73,0.00,,---,0.00,VWS V14.00,2013-07-22 19:30:00,
2013-07-22 15:32:00,79.5,70.1,29.70,WSW,250,0.0,0.0,73,0.00,,---,0.00,VWS V14.00,2013-07-22 19:32:00,
2013-07-22 15:37:00,79.4,69.6,29.69,SSW,213,0.0,0.0,72,0.00,,---,0.00,VWS V14.00,2013-07-22 19:37:00,
2013-07-22 15:42:00,79.4,71.2,29.69,SSW,213,0.0,1.0,76,0.00,,---,0.00,VWS V14.00,2013-07-22 19:42:00,
2013-07-22 15:45:00,79.4,70.8,29.71,SW,234,0.0,5.0,75,0.00,,---,0.00,VWS V14.00,2013-07-22 19:45:00,
2013-07-22 15:47:00,79.3,70.7,29.69,SSW,213,0.0,0.0,75,0.00,,---,0.00,VWS V14.00,2013-07-22 19:47:00,
2013-07-22 15:52:00,79.1,70.5,29.69,SSW,213,0.0,0.0,75,0.00,,---,0.00,VWS V14.00,2013-07-22 19:52:00,
2013-07-22 15:58:00,78.7,70.1,29.69,South,186,0.0,1.0,75,0.00,,---,0.00,VWS V14.00,2013-07-22 19:58:00,
2013-07-22 16:00:00,79.4,70.0,29.71,SSE,151,0.0,1.0,73,0.00,,---,0.00,VWS V14.00,2013-07-22 20:00:00,
2013-07-22 16:03:00,78.3,70.5,29.68,South,184,0.0,0.0,77,0.00,,---,0.00,VWS V14.00,2013-07-22 20:03:00,
2013-07-22 16:08:00,77.9,70.1,29.68,South,184,0.0,0.0,77,0.00,,---,0.00,VWS V14.00,2013-07-22 20:08:00,
2013-07-22 16:13:00,77.6,70.2,29.68,South,184,0.0,0.0,78,0.00,,---,0.00,VWS V14.00,2013-07-22 20:13:00,
2013-07-22 16:15:00,79.4,70.4,29.70,WSW,243,0.0,1.0,74,0.00,,---,0.00,VWS V14.00,2013-07-22 20:15:00,
2013-07-22 16:16:00,77.4,70.4,29.68,South,184,0.0,0.0,79,0.00,,---,0.00,VWS V14.00,2013-07-22 20:16:00,
2013-07-22 16:17:00,77.4,70.4,29.68,South,184,0.0,0.0,79,0.00,,---,0.00,VWS V14.00,2013-07-22 20:17:00,
2013-07-22 16:23:00,77.2,70.6,29.68,SSW,201,0.0,1.0,80,0.00,,---,0.00,VWS V14.00,2013-07-22 20:23:00,
2013-07-22 16:28:00,76.8,70.9,29.68,SSW,201,0.0,1.0,82,0.00,,---,0.00,VWS V14.00,2013-07-22 20:28:00,
2013-07-22 16:30:00,79.5,70.5,29.70,WSW,250,0.0,4.0,74,0.00,,---,0.00,VWS V14.00,2013-07-22 20:30:00,
2013-07-22 16:33:00,76.4,70.9,29.68,SSW,201,0.0,0.0,83,0.01,,---,0.01,VWS V14.00,2013-07-22 20:33:00,
2013-07-22 16:38:00,75.9,71.1,29.68,SSW,201,0.0,0.0,85,0.01,,---,0.01,VWS V14.00,2013-07-22 20:38:00,
2013-07-22 16:43:00,75.4,70.9,29.68,SSW,201,0.0,1.0,86,0.01,,---,0.01,VWS V14.00,2013-07-22 20:43:00,
2013-07-22 16:45:00,79.4,70.4,29.69,SSW,213,0.0,1.0,74,0.00,,---,0.00,VWS V14.00,2013-07-22 20:45:00,
2013-07-22 16:48:00,74.9,70.8,29.68,SSW,201,0.0,1.0,87,0.02,,---,0.02,VWS V14.00,2013-07-22 20:48:00,
2013-07-22 16:53:00,74.4,70.3,29.68,SSW,200,0.0,1.0,87,0.02,,---,0.02,VWS V14.00,2013-07-22 20:53:00,
2013-07-22 16:58:00,74.0,70.2,29.68,SSW,200,0.0,1.0,88,0.03,,---,0.03,VWS V14.00,2013-07-22 20:58:00,
2013-07-22 17:00:00,78.5,70.3,29.69,South,186,0.0,1.0,76,0.00,,---,0.00,VWS V14.00,2013-07-22 21:00:00,
2013-07-22 17:03:00,73.6,70.5,29.68,SSW,200,0.0,0.0,90,0.04,,---,0.04,VWS V14.00,2013-07-22 21:03:00,
2013-07-22 17:08:00,73.4,70.3,29.68,WSW,254,0.0,1.0,90,0.04,,---,0.04,VWS V14.00,2013-07-22 21:08:00,
2013-07-22 17:13:00,73.2,70.4,29.67,WSW,254,0.0,1.0,91,0.04,,---,0.04,VWS V14.00,2013-07-22 21:13:00,
2013-07-22 17:15:00,77.5,69.7,29.68,South,184,0.0,1.0,77,0.00,,---,0.00,VWS V14.00,2013-07-22 21:15:00,
2013-07-22 17:18:00,73.1,70.3,29.67,WSW,254,0.0,0.0,91,0.04,,---,0.04,VWS V14.00,2013-07-22 21:18:00,
2013-07-22 17:23:00,73.1,70.6,29.67,WSW,254,0.0,0.0,92,0.04,,---,0.04,VWS V14.00,2013-07-22 21:23:00,
2013-07-22 17:28:00,73.1,70.6,29.67,WSW,254,0.0,0.0,92,0.04,,---,0.04,VWS V14.00,2013-07-22 21:28:00,
2013-07-22 17:30:00,76.6,70.7,29.68,SSW,201,0.0,1.0,82,0.00,,---,0.00,VWS V14.00,2013-07-22 21:30:00,
2013-07-22 17:33:00,73.1,71.0,29.67,WSW,254,0.0,0.0,93,0.04,,---,0.04,VWS V14.00,2013-07-22 21:33:00,
2013-07-22 17:38:00,73.1,71.0,29.67,WSW,254,0.0,0.0,93,0.04,,---,0.04,VWS V14.00,2013-07-22 21:38:00,
2013-07-22 17:43:00,73.1,71.0,29.67,WSW,254,0.0,0.0,93,0.04,,---,0.04,VWS V14.00,2013-07-22 21:43:00,
2013-07-22 17:45:00,75.2,71.1,29.68,SSW,201,0.0,1.0,87,0.01,,---,0.01,VWS V14.00,2013-07-22 21:45:00,
2013-07-22 17:48:00,73.0,70.9,29.67,WSW,254,0.0,1.0,93,0.03,,---,0.04,VWS V14.00,2013-07-22 21:48:00,
2013-07-22 17:53:00,73.0,70.9,29.67,WSW,254,0.0,1.0,93,0.04,,---,0.05,VWS V14.00,2013-07-22 21:53:00,
2013-07-22 17:58:00,72.9,70.8,29.67,WSW,254,0.0,1.0,93,0.04,,---,0.05,VWS V14.00,2013-07-22 21:58:00,
2013-07-22 18:00:00,73.8,70.4,29.68,SSW,200,0.0,1.0,89,0.03,,---,0.03,VWS V14.00,2013-07-22 22:00:00,
2013-07-22 18:03:00,72.8,70.7,29.67,WSW,254,0.0,0.0,93,0.02,,---,0.05,VWS V14.00,2013-07-22 22:03:00,
2013-07-22 18:08:00,72.7,70.6,29.67,WSW,254,0.0,1.0,93,0.02,,---,0.05,VWS V14.00,2013-07-22 22:08:00,
2013-07-22 18:13:00,72.6,70.5,29.67,WSW,254,0.0,1.0,93,0.02,,---,0.05,VWS V14.00,2013-07-22 22:13:00,
2013-07-22 18:15:00,73.2,70.4,29.67,WSW,254,0.0,1.0,91,0.04,,---,0.04,VWS V14.00,2013-07-22 22:15:00,
2013-07-22 18:18:00,72.4,69.9,29.67,WSW,254,0.0,0.0,92,0.01,,---,0.05,VWS V14.00,2013-07-22 22:18:00,
2013-07-22 18:23:00,71.9,68.5,29.66,WSW,254,0.0,0.0,89,0.01,,---,0.05,VWS V14.00,2013-07-22 22:23:00,
2013-07-22 18:28:00,71.8,68.4,29.66,WSW,254,0.0,0.0,89,0.01,,---,0.05,VWS V14.00,2013-07-22 22:28:00,
2013-07-22 18:30:00,73.1,70.6,29.67,WSW,254,0.0,0.0,92,0.04,,---,0.04,VWS V14.00,2013-07-22 22:30:00,
2013-07-22 18:33:00,71.7,68.6,29.66,WSW,254,0.0,0.0,90,0.01,,---,0.05,VWS V14.00,2013-07-22 22:33:00,
2013-07-22 18:38:00,71.5,68.7,29.67,WSW,254,0.0,0.0,91,0.01,,---,0.05,VWS V14.00,2013-07-22 22:38:00,
2013-07-22 18:43:00,71.0,67.9,29.67,WSW,254,0.0,0.0,90,0.01,,---,0.05,VWS V14.00,2013-07-22 22:43:00,
2013-07-22 18:45:00,73.1,71.0,29.67,WSW,254,0.0,0.0,93,0.04,,---,0.04,VWS V14.00,2013-07-22 22:45:00,
2013-07-22 18:48:00,70.4,67.3,29.67,WSW,254,0.0,0.0,90,0.01,,---,0.05,VWS V14.00,2013-07-22 22:48:00,
2013-07-22 18:53:00,70.0,67.3,29.67,WSW,254,0.0,0.0,91,0.01,,---,0.05,VWS V14.00,2013-07-22 22:53:00,
2013-07-22 18:58:00,69.7,67.0,29.67,WSW,254,0.0,0.0,91,0.01,,---,0.05,VWS V14.00,2013-07-22 22:58:00,
2013-07-22 19:00:00,72.9,70.8,29.67,WSW,254,0.0,1.0,93,0.04,,---,0.05,VWS V14.00,2013-07-22 23:00:00,
2013-07-22 19:03:00,69.4,67.0,29.67,ESE,109,0.0,0.0,92,0.00,,---,0.05,VWS V14.00,2013-07-22 23:03:00,
2013-07-22 19:08:00,69.4,67.3,29.67,ESE,109,0.0,0.0,93,0.00,,---,0.05,VWS V14.00,2013-07-22 23:08:00,
2013-07-22 19:13:00,69.5,67.7,29.67,ESE,109,0.0,0.0,94,0.00,,---,0.05,VWS V14.00,2013-07-22 23:13:00,
2013-07-22 19:15:00,72.6,70.5,29.67,WSW,254,0.0,1.0,93,0.02,,---,0.05,VWS V14.00,2013-07-22 23:15:00,
2013-07-22 19:18:00,69.7,67.9,29.67,ESE,109,0.0,0.0,94,0.00,,---,0.05,VWS V14.00,2013-07-22 23:18:00,
2013-07-22 19:23:00,69.9,68.1,29.67,ESE,109,0.0,0.0,94,0.00,,---,0.05,VWS V14.00,2013-07-22 23:23:00,
2013-07-22 19:28:00,69.6,67.8,29.66,ESE,109,0.0,0.0,94,0.00,,---,0.05,VWS V14.00,2013-07-22 23:28:00,
2013-07-22 19:30:00,71.7,68.3,29.66,WSW,254,0.0,0.0,89,0.01,,---,0.05,VWS V14.00,2013-07-22 23:30:00,
2013-07-22 19:33:00,69.3,67.2,29.67,ESE,109,0.0,0.0,93,0.00,,---,0.05,VWS V14.00,2013-07-22 23:33:00,
2013-07-22 19:38:00,68.7,66.0,29.66,ESE,109,0.0,0.0,91,0.00,,---,0.05,VWS V14.00,2013-07-22 23:38:00,
2013-07-22 19:43:00,68.6,66.2,29.66,ESE,109,0.0,0.0,92,0.00,,---,0.05,VWS V14.00,2013-07-22 23:43:00,
2013-07-22 19:45:00,70.8,67.4,29.67,WSW,254,0.0,1.0,89,0.01,,---,0.05,VWS V14.00,2013-07-22 23:45:00,
2013-07-22 19:48:00,68.6,66.5,29.66,ESE,109,0.0,0.0,93,0.00,,---,0.05,VWS V14.00,2013-07-22 23:48:00,
2013-07-22 19:53:00,68.5,66.4,29.66,ESE,109,0.0,0.0,93,0.01,,---,0.06,VWS V14.00,2013-07-22 23:53:00,
2013-07-22 19:58:00,68.3,66.2,29.66,ESE,109,0.0,0.0,93,0.01,,---,0.06,VWS V14.00,2013-07-22 23:58:00,
2013-07-22 20:00:00,69.5,66.8,29.67,ESE,109,0.0,0.0,91,0.01,,---,0.05,VWS V14.00,2013-07-23 00:00:00,
2013-07-22 20:03:00,68.2,66.1,29.66,ESE,109,0.0,0.0,93,0.01,,---,0.06,VWS V14.00,2013-07-23 00:03:00,
2013-07-22 20:08:00,68.1,66.0,29.66,ESE,109,0.0,0.0,93,0.01,,---,0.06,VWS V14.00,2013-07-23 00:08:00,
2013-07-22 20:13:00,68.0,66.2,29.66,ESE,109,0.0,0.0,94,0.01,,---,0.06,VWS V14.00,2013-07-23 00:13:00,
2013-07-22 20:15:00,69.5,67.7,29.67,ESE,109,0.0,0.0,94,0.00,,---,0.05,VWS V14.00,2013-07-23 00:15:00,
2013-07-22 20:18:00,68.0,66.2,29.66,ESE,109,0.0,0.0,94,0.01,,---,0.06,VWS V14.00,2013-07-23 00:18:00,
2013-07-22 20:23:00,67.9,66.1,29.65,ESE,109,0.0,0.0,94,0.01,,---,0.06,VWS V14.00,2013-07-23 00:23:00,
2013-07-22 20:28:00,67.7,65.9,29.65,ESE,109,0.0,0.0,94,0.01,,---,0.06,VWS V14.00,2013-07-23 00:28:00,
2013-07-22 20:30:00,69.5,67.7,29.67,ESE,109,0.0,0.0,94,0.00,,---,0.05,VWS V14.00,2013-07-23 00:30:00,
2013-07-22 20:33:00,67.5,65.7,29.65,ESE,108,0.0,1.0,94,0.01,,---,0.06,VWS V14.00,2013-07-23 00:33:00,
2013-07-22 20:38:00,67.2,65.4,29.65,ESE,108,0.0,1.0,94,0.01,,---,0.06,VWS V14.00,2013-07-23 00:38:00,
2013-07-22 20:45:00,67.0,65.2,29.65,ESE,112,0.0,1.0,94,0.01,,---,0.06,VWS V14.00,2013-07-23 00:45:00,
2013-07-22 21:00:00,66.8,65.3,29.64,ESE,112,0.0,1.0,95,0.01,,---,0.06,VWS V14.00,2013-07-23 01:00:00,
2013-07-22 21:15:00,66.9,65.4,29.65,ESE,112,0.0,0.0,95,0.00,,---,0.06,VWS V14.00,2013-07-23 01:15:00,
2013-07-22 21:30:00,67.1,65.9,29.64,ESE,112,0.0,0.0,96,0.00,,---,0.06,VWS V14.00,2013-07-23 01:30:00,
2013-07-22 21:45:00,67.0,65.8,29.64,ESE,112,0.0,0.0,96,0.00,,---,0.06,VWS V14.00,2013-07-23 01:45:00,
2013-07-22 22:00:00,66.8,65.3,29.64,ESE,112,0.0,1.0,95,0.01,,---,0.06,VWS V14.00,2013-07-23 02:00:00,
2013-07-22 22:08:00,67.0,65.8,29.65,ESE,108,0.0,0.0,96,0.00,,---,0.06,VWS V14.00,2013-07-23 02:08:00,
2013-07-22 22:13:00,67.1,65.9,29.65,ESE,108,0.0,0.0,96,0.00,,---,0.06,VWS V14.00,2013-07-23 02:13:00,
2013-07-22 22:15:00,66.9,65.4,29.65,ESE,112,0.0,0.0,95,0.00,,---,0.06,VWS V14.00,2013-07-23 02:15:00,
2013-07-22 22:18:00,67.2,66.0,29.65,ESE,108,0.0,0.0,96,0.00,,---,0.06,VWS V14.00,2013-07-23 02:18:00,
2013-07-22 22:23:00,67.2,66.0,29.64,ESE,108,0.0,1.0,96,0.00,,---,0.06,VWS V14.00,2013-07-23 02:23:00,
2013-07-22 22:28:00,67.3,66.1,29.64,ESE,108,0.0,1.0,96,0.00,,---,0.06,VWS V14.00,2013-07-23 02:28:00,
2013-07-22 22:30:00,67.1,65.9,29.64,ESE,112,0.0,0.0,96,0.00,,---,0.06,VWS V14.00,2013-07-23 02:30:00,
2013-07-22 22:33:00,67.3,66.1,29.64,ESE,108,0.0,0.0,96,0.00,,---,0.06,VWS V14.00,2013-07-23 02:33:00,
2013-07-22 22:38:00,67.3,66.1,29.64,ESE,108,0.0,1.0,96,0.00,,---,0.06,VWS V14.00,2013-07-23 02:38:00,
2013-07-22 22:43:00,67.4,66.2,29.64,ESE,108,0.0,1.0,96,0.00,,---,0.06,VWS V14.00,2013-07-23 02:43:00,
2013-07-22 22:45:00,67.0,65.8,29.64,ESE,112,0.0,0.0,96,0.00,,---,0.06,VWS V14.00,2013-07-23 02:45:00,
2013-07-22 22:48:00,67.4,66.2,29.64,ESE,108,0.0,1.0,96,0.00,,---,0.06,VWS V14.00,2013-07-23 02:48:00,
2013-07-22 22:53:00,67.4,66.2,29.64,ESE,108,0.0,1.0,96,0.00,,---,0.06,VWS V14.00,2013-07-23 02:53:00,
2013-07-22 22:58:00,67.4,66.2,29.64,ESE,108,0.0,1.0,96,0.00,,---,0.06,VWS V14.00,2013-07-23 02:58:00,
2013-07-22 23:03:00,67.4,66.2,29.64,ESE,108,0.0,1.0,96,0.00,,---,0.06,VWS V14.00,2013-07-23 03:03:00,
2013-07-22 23:08:00,67.4,66.2,29.64,ESE,108,0.0,1.0,96,0.00,,---,0.06,VWS V14.00,2013-07-23 03:08:00,
2013-07-22 23:13:00,67.3,66.1,29.64,ESE,108,0.0,1.0,96,0.00,,---,0.06,VWS V14.00,2013-07-23 03:13:00,
2013-07-22 23:15:00,67.1,65.9,29.65,ESE,108,0.0,0.0,96,0.00,,---,0.06,VWS V14.00,2013-07-23 03:15:00,
2013-07-22 23:18:00,67.3,66.4,29.64,ESE,108,0.0,1.0,97,0.00,,---,0.06,VWS V14.00,2013-07-23 03:18:00,
2013-07-22 23:23:00,67.3,66.4,29.64,ESE,108,0.0,1.0,97,0.00,,---,0.06,VWS V14.00,2013-07-23 03:23:00,
2013-07-22 23:28:00,67.3,66.4,29.64,ESE,108,0.0,1.0,97,0.00,,---,0.06,VWS V14.00,2013-07-23 03:28:00,
2013-07-22 23:30:00,67.3,66.1,29.64,ESE,108,0.0,1.0,96,0.00,,---,0.06,VWS V14.00,2013-07-23 03:30:00,
2013-07-22 23:33:00,67.3,66.4,29.64,ESE,108,0.0,0.0,97,0.00,,---,0.06,VWS V14.00,2013-07-23 03:33:00,
2013-07-22 23:38:00,67.3,66.4,29.64,ESE,108,0.0,0.0,97,0.00,,---,0.06,VWS V14.00,2013-07-23 03:38:00,
2013-07-22 23:43:00,67.3,66.4,29.65,ESE,108,0.0,0.0,97,0.00,,---,0.06,VWS V14.00,2013-07-23 03:43:00,
2013-07-22 23:45:00,67.4,66.2,29.64,ESE,108,0.0,1.0,96,0.00,,---,0.06,VWS V14.00,2013-07-23 03:45:00,
2013-07-22 23:48:00,67.3,66.4,29.65,ESE,108,0.0,0.0,97,0.00,,---,0.06,VWS V14.00,2013-07-23 03:48:00,
2013-07-22 23:53:00,67.3,66.4,29.64,ESE,108,0.0,0.0,97,0.00,,---,0.06,VWS V14.00,2013-07-23 03:53:00,
2013-07-22 23:58:00,67.3,66.4,29.65,ESE,108,0.0,0.0,97,0.00,,---,0.06,VWS V14.00,2013-07-23 03:58:00,